{"data":{"norad_id":65854,"intl_designator":"2025-223A","name":"STARLINK-35208","alt_names":[],"object_type":"PAYLOAD","status":"ACTIVE","operator":null,"country":"US","launch_date":"2025-10-03","launch_site_code":"AFWTR","launch_vehicle":null,"mission":null,"orbit_class":"UNKNOWN","rcs_meters":null,"size_class":null,"mass_kg":null,"dimensions":null,"purposes":["comms"],"wikipedia_slug":null,"has_3d_model":false,"image_url":null,"decayed_at":null,"tle_current":{"epoch":"2026-09-20T06:51:25.659360Z","epoch_age_seconds":124707,"freshness":"FRESH","line1":"1 65854U 25223A   26263.28571365  .00042479  00000+0  12596-2 0  9998","line2":"2 65854  53.1582 106.4427 0001424  74.8237 285.2923 15.34442618 54053","mean_motion":15.34442618,"eccentricity":0.0001424,"inclination_deg":53.1582,"raan_deg":106.4427,"arg_perigee_deg":74.8237,"mean_anomaly_deg":285.2923,"bstar":0.0012596,"rev_number":5405,"period_min":93.845151529805,"perigee_km":461.60245584871,"apogee_km":463.55069107444,"semimajor_km":6840.7135734616,"source":"CELESTRAK","updated_at":"2026-09-21T09:00:35.725114Z"}}}